TimePDT,TemperatureF,Dew PointF,Humidity,Sea Level PressureIn,VisibilityMPH,Wind Direction,Wind SpeedMPH,Gust SpeedMPH,PrecipitationIn,Events,Conditions,WindDirDegrees,DateUTC
12:53 AM,57.0,52.0,83,29.89,10.0,SSW,6.9,-,N/A,,Clear,210,2013-08-23 07:53:00
1:53 AM,57.0,52.0,83,29.88,10.0,SW,8.1,-,N/A,,Clear,220,2013-08-23 08:53:00
2:44 AM,57.2,51.8,82,29.91,10.0,SW,6.9,-,N/A,,Mostly Cloudy,220,2013-08-23 09:44:00
2:53 AM,57.9,53.1,84,29.88,10.0,SSW,8.1,-,N/A,,Mostly Cloudy,210,2013-08-23 09:53:00
3:53 AM,57.9,52.0,81,29.87,10.0,SW,10.4,-,N/A,,Overcast,230,2013-08-23 10:53:00
4:53 AM,57.9,52.0,81,29.86,10.0,WSW,5.8,-,N/A,,Overcast,240,2013-08-23 11:53:00
5:53 AM,57.9,53.1,84,29.86,10.0,SW,8.1,-,N/A,,Overcast,220,2013-08-23 12:53:00
6:42 AM,57.2,53.6,88,29.90,10.0,SW,10.4,-,N/A,,Scattered Clouds,220,2013-08-23 13:42:00
6:53 AM,57.9,53.1,84,29.87,10.0,SW,6.9,-,N/A,,Mostly Cloudy,230,2013-08-23 13:53:00
7:27 AM,57.2,51.8,82,29.91,10.0,SW,11.5,-,N/A,,Scattered Clouds,220,2013-08-23 14:27:00
7:50 AM,59.0,51.8,77,29.91,10.0,SSW,11.5,-,N/A,,Mostly Cloudy,210,2013-08-23 14:50:00
7:53 AM,59.0,52.0,78,29.88,10.0,SSW,10.4,-,N/A,,Mostly Cloudy,210,2013-08-23 14:53:00
8:03 AM,59.0,51.8,77,29.92,10.0,SSW,11.5,-,N/A,,Scattered Clouds,210,2013-08-23 15:03:00
8:53 AM,61.0,52.0,72,29.88,10.0,South,10.4,-,N/A,,Partly Cloudy,190,2013-08-23 15:53:00
9:53 AM,64.0,52.0,65,29.88,10.0,SSW,11.5,-,N/A,,Partly Cloudy,200,2013-08-23 16:53:00
10:53 AM,66.9,52.0,59,29.87,10.0,South,11.5,-,N/A,,Clear,190,2013-08-23 17:53:00
11:53 AM,70.0,52.0,53,29.86,10.0,South,8.1,-,N/A,,Clear,180,2013-08-23 18:53:00
12:53 PM,73.9,53.1,48,29.84,10.0,SSW,4.6,-,N/A,,Clear,200,2013-08-23 19:53:00
1:53 PM,79.0,54.0,42,29.82,10.0,Variable,5.8,-,N/A,,Clear,0,2013-08-23 20:53:00
2:53 PM,82.0,53.1,37,29.80,10.0,NNW,13.8,-,N/A,,Clear,330,2013-08-23 21:53:00
3:53 PM,84.0,52.0,33,29.78,10.0,West,9.2,-,N/A,,Clear,270,2013-08-23 22:53:00
4:53 PM,82.0,53.1,37,29.77,10.0,West,11.5,-,N/A,,Clear,270,2013-08-23 23:53:00
5:53 PM,79.0,50.0,36,29.75,10.0,West,17.3,21.9,N/A,,Clear,270,2013-08-24 00:53:00
6:53 PM,73.9,54.0,50,29.75,10.0,South,11.5,-,N/A,,Clear,190,2013-08-24 01:53:00
7:53 PM,68.0,53.1,59,29.75,10.0,SSW,13.8,-,N/A,,Clear,200,2013-08-24 02:53:00
8:53 PM,63.0,53.1,70,29.76,10.0,SSW,19.6,-,N/A,,Clear,200,2013-08-24 03:53:00
9:53 PM,62.1,53.1,72,29.78,10.0,South,13.8,-,N/A,,Clear,190,2013-08-24 04:53:00
10:53 PM,61.0,53.1,75,29.78,10.0,South,13.8,-,N/A,,Clear,190,2013-08-24 05:53:00
11:53 PM,60.1,54.0,80,29.78,10.0,South,17.3,-,N/A,,Clear,190,2013-08-24 06:53:00